Regional Weather Roundup
Issued by NWS

Home | Current Version | Previous Version | Graphics & Text | Print | Product List | Glossary On
Versions: 1 2 3 4 5 6 7 8 9 10 11 12 13 14 15 16 17 18 19 20 21 22 23 24 25 26 27 28 29 30 31 32 33 34 35 36 37 38 39 40 41 42 43 44 45 46 47 48 49 50
000
ASUS43 KTOP 241859
RWRKS

WEATHER ROUNDUP FOR KANSAS
NATIONAL WEATHER SERVICE GOODLAND KS
200 PM CDT WED AUG 24 2016

NOTE:  "FAIR" INDICATES FEW OR NO CLOUDS BELOW 12,000 FEET WITH NO
SIGNIFICANT WEATHER AND/OR OBSTRUCTIONS TO VISIBILITY.

KSZ001>006-013>018-027>032-041>047-242000-
NORTHWEST KANSAS

CITY           SKY/WX    TMP DP  RH WIND       PRES   REMARKS
GOODLAND       CLOUDY    69  42  37 NE13      30.15F
HAYS           CLOUDY    72  59  64 NE13      30.04R
HILL CITY      CLOUDY    69  57  65 NE8       30.07S
RUSSELL        CLOUDY    72  65  78 N15       30.02
$$

KSZ061>065-074>080-084>089-242000-
SOUTHWEST KANSAS

CITY           SKY/WX    TMP DP  RH WIND       PRES   REMARKS
DODGE CITY     MOSUNNY   85  61  44 VRB7      30.01F
ELKHART          N/A     81  54  39 NW7         N/A
GARDEN CITY    SUNNY     83  57  41 SE10G18   30.02F
GREAT BEND     CLOUDY    82  63  51 NW14      29.99S
LIBERAL        CLOUDY    79  55  44 N5        30.06F
$$

KSZ066>073-081>083-090>101-242000-
SOUTHEAST KANSAS

CITY           SKY/WX    TMP DP  RH WIND       PRES   REMARKS
CHANUTE        MOSUNNY   91  72  53 S12       30.00F HX  98
COFFEYVILLE    SUNNY     94  70  45 SW14      30.00F HX 100
HUTCHINSON     PTSUNNY   87  69  54 S10       29.99S
NEWTON         CLOUDY    85  68  56 S10       30.00F
PARSONS        MOSUNNY   91  71  51 S7        30.01F HX  97
WICHITA INTL   CLOUDY    88  67  49 S13       29.98F
WICHITA JABRA  PTSUNNY   86  69  56 S13       29.99F
WINFIELD       MOSUNNY   92  69  47 S12G17    29.99F HX  97
$$

KSZ007>012-019>026-033>040-048>060-102>105-242000-
NORTHEAST KANSAS

CITY           SKY/WX    TMP DP  RH WIND       PRES   REMARKS
CONCORDIA      LGT RAIN  73  68  84 N5        30.01R
EMPORIA        MOSUNNY   87  68  52 S14       30.00F
LAWRENCE       LGT RAIN  80  71  74 S9        30.00S
MANHATTAN      CLOUDY    78  71  79 S3        29.98F
OLATHE IND     LGT RAIN  82  71  69 W8        30.03S
OLATHE EXE     CLOUDY    83  68  60 SW10      30.03S
SALINA         CLOUDY    82  65  56 S10       29.98R
TOPEKA BILLARD CLOUDY    79  72  79 S7        30.00R
TOPEKA FORBES  CLOUDY    82  70  66 SW3       30.00F
$$




USA.gov is the U.S. government's official web portal to all federal, state and local government web resources and services.